This is the latest recevied weather packets stored in our database for station/object N7CW. If no packets are shown the sender has not sent any weather packets the latest 10 day(s).
| Time | Temp. | Humidity | Pressure | Rain* | Wind** | Luminosity | Snow |
|---|---|---|---|---|---|---|---|
| 1777991882 | 8.89° C | 59% | 1013.1 hPa | 0 mm | - | 178 W/m² | - |
| 1777991579 | 8.89° C | 60% | 1012.9 hPa | 0 mm | - | 181 W/m² | - |
| 1777991276 | 9.44° C | 60% | 1012.8 hPa | 0 mm | - | 174 W/m² | - |
| 1777990973 | 8.33° C | 63% | 1012.8 hPa | 0 mm | - | 183 W/m² | - |
| 1777990671 | 8.33° C | 62% | 1012.8 hPa | 0 mm | - | 115 W/m² | - |
| 1777990368 | 8.89° C | 61% | 1012.6 hPa | 0 mm | - | 111 W/m² | - |
| 1777990064 | 8.89° C | 61% | 1012.8 hPa | 0 mm | - | 133 W/m² | - |
| 1777989761 | 8.89° C | 60% | 1012.7 hPa | 0 mm | - | 107 W/m² | - |
| 1777989457 | 8.89° C | 61% | 1012.7 hPa | 0 mm | - | 166 W/m² | - |
| 1777989154 | 8.89° C | 60% | 1012.7 hPa | 0 mm | - | 142 W/m² | - |
| 1777988850 | 8.33° C | 62% | 1012.9 hPa | 0 mm | - | 105 W/m² | - |
| 1777988548 | 8.33° C | 62% | 1012.6 hPa | 0 mm | - | 88 W/m² | - |
| 1777988244 | 8.33° C | 61% | 1012.7 hPa | 0 mm | - | 66 W/m² | - |
| 1777987941 | 7.78° C | 61% | 1012.5 hPa | 0 mm | - | 64 W/m² | - |
| 1777987636 | 7.78° C | 60% | 1012.6 hPa | 0 mm | - | 52 W/m² | - |
| 1777987334 | 7.78° C | 59% | 1012.5 hPa | 0 mm | - | 45 W/m² | - |
| 1777987031 | 7.78° C | 58% | 1012.5 hPa | 0 mm | - | 40 W/m² | - |
| 1777986729 | 7.78° C | 58% | 1012.5 hPa | 0 mm | - | 36 W/m² | - |
| 1777986426 | 7.78° C | 58% | 1012.6 hPa | 0 mm | - | 30 W/m² | - |
| 1777986124 | 7.78° C | 58% | 1012.5 hPa | 0 mm | - | 22 W/m² | - |
| 1777985821 | 7.78° C | 59% | 1012.2 hPa | 0 mm | - | 16 W/m² | - |
| 1777985518 | 7.78° C | 59% | 1012.2 hPa | 0 mm | - | 11 W/m² | - |
| 1777985214 | 7.22° C | 59% | 1012.4 hPa | 0 mm | - | 7 W/m² | - |
| 1777984911 | 7.22° C | 59% | 1012.4 hPa | 0 mm | - | 4 W/m² | - |
| 1777984607 | 7.22° C | 59% | 1012.4 hPa | 0 mm | - | 2 W/m² | - |
* Rain latest hour (hover to see other rain measurements)
** Current wind speed in m/s (hover to see current wind gust speed)